Location: Cheching
(60.0667°N, 164.2167°W)
Time: 01:04:20
(UTC+00:00)

XW-2B - Visible Passes

Search period start: 24 January 2021 00:00
Search period end: 03 February 2021 00:00
Orbit: 507 x 525 km, 97.5° (Epoch: 23 January)

Date Brightness Start Highest point End Pass type
(mag) Time Alt. Az. Time Alt. Az. Time Alt. Az.
24 Jan ? 05:00:40 10° SW 05:03:31 20° W 05:06:23 10° NW visible
24 Jan ? 16:21:27 10° NE 16:24:43 26° E 16:27:57 10° SSE visible
24 Jan ? 17:55:17 10° N 17:59:01 51° WNW 18:02:45 10° SW visible
25 Jan ? 04:45:25 10° SSW 04:48:38 26° W 04:51:53 10° NW visible
25 Jan ? 16:06:57 10° NE 16:09:50 20° E 16:12:42 10° SE visible
25 Jan ? 17:40:29 10° NNE 17:44:18 68° WNW 17:48:07 10° SSW visible
26 Jan ? 04:30:18 10° SSW 04:33:46 34° W 04:37:17 10° NNW visible
26 Jan ? 15:52:34 10° NE 15:54:55 15° E 15:57:16 10° SE visible
26 Jan ? 17:25:43 10° NNE 17:29:34 90° E 17:33:24 10° SSW visible
27 Jan ? 04:15:18 10° S 04:18:56 45° W 04:22:38 10° NNW visible
27 Jan ? 15:38:30 10° ENE 15:39:58 12° E 15:41:26 10° ESE visible
27 Jan ? 17:10:58 10° NNE 17:14:47 67° ESE 17:18:37 10° S visible
28 Jan ? 04:00:23 10° S 04:04:08 62° WSW 04:07:56 10° NNW visible
28 Jan ? 05:38:06 10° W 05:39:02 11° W 05:39:57 10° WNW visible
28 Jan ? 16:56:15 10° NNE 17:00:00 50° E 17:03:44 10° S visible
28 Jan ? 18:30:36 10° N 18:33:55 28° WNW 18:37:13 10° WSW visible
29 Jan ? 03:45:34 10° SSE 03:49:21 83° WSW 03:53:11 10° NNW visible
29 Jan ? 05:21:59 10° WSW 05:24:04 14° W 05:26:09 10° NW visible
29 Jan ? 16:41:34 10° NNE 16:45:11 37° E 16:48:46 10° SSE visible
29 Jan ? 18:15:43 10° N 18:19:15 36° WNW 18:22:46 10° SW visible
30 Jan ? 05:06:26 10° SW 05:09:08 18° W 05:11:51 10° NW visible
30 Jan ? 16:26:56 10° NNE 16:30:19 28° E 16:33:41 10° SSE visible
30 Jan ? 18:00:52 10° N 18:04:34 46° WNW 18:08:14 10° SW visible
31 Jan ? 04:51:07 10° SSW 04:54:14 24° W 04:57:22 10° NW visible
31 Jan ? 16:12:23 10° NE 16:15:26 22° E 16:18:28 10° SE visible
31 Jan ? 17:46:03 10° N 17:49:52 61° WNW 17:53:38 10° SSW visible
01 Feb ? 04:35:57 10° SSW 04:39:21 31° W 04:42:47 10° NNW visible
01 Feb ? 15:57:56 10° NE 16:00:31 17° E 16:03:06 10° SE visible
01 Feb ? 17:31:15 10° NNE 17:35:07 82° WNW 17:38:57 10° SSW visible
02 Feb ? 04:20:54 10° S 04:24:30 41° W 04:28:09 10° NNW visible
02 Feb ? 15:43:43 10° NE 15:45:35 13° E 15:47:26 10° ESE visible
02 Feb ? 17:16:29 10° NNE 17:20:21 75° ESE 17:24:11 10° S visible
